SWU2302 LIML-LIMJ

Flight info

Callsign SWU2302
Flight time 0h 21m
Altitude 15000
Route GEN
Aircraft DH8D/M-SDE2E3FGRY/H

Departure

Time 2026-04-26 18:47
Airport Milano Linate Airport (LIML)

Arrival

Time 2026-04-26 19:09
Airport Genoa Cristoforo Colombo Airport (LIMJ)
Time Latitude Longitude Altitude Speed Heading
2026-04-26 18:20 45.45297 9.28004 362 ft 0 kts 270°
2026-04-26 18:36 45.45297 9.28002 362 ft 1 kts 270°
2026-04-26 18:36 45.45298 9.27947 361 ft 7 kts 271°
2026-04-26 18:36 45.45298 9.27942 361 ft 0 kts 271°
2026-04-26 18:36 45.45298 9.27941 361 ft 1 kts 270°
2026-04-26 18:37 45.45267 9.27892 361 ft 13 kts 201°
2026-04-26 18:37 45.45171 9.27871 361 ft 13 kts 175°
2026-04-26 18:37 45.45073 9.27882 360 ft 16 kts 175°
2026-04-26 18:37 45.44952 9.27899 359 ft 18 kts 166°
2026-04-26 18:38 45.44836 9.27938 359 ft 15 kts 174°
2026-04-26 18:38 45.44724 9.27952 358 ft 18 kts 175°
2026-04-26 18:38 45.44576 9.27967 356 ft 21 kts 175°
2026-04-26 18:38 45.44391 9.27990 355 ft 26 kts 175°
2026-04-26 18:39 45.44216 9.28008 353 ft 24 kts 175°
2026-04-26 18:39 45.44053 9.28026 351 ft 21 kts 175°
2026-04-26 18:39 45.43907 9.28042 350 ft 19 kts 175°
2026-04-26 18:39 45.43780 9.28056 349 ft 17 kts 175°
2026-04-26 18:40 45.43658 9.28068 348 ft 18 kts 176°
2026-04-26 18:40 45.43543 9.28080 347 ft 11 kts 173°
2026-04-26 18:40 45.43510 9.28083 347 ft 0 kts 177°
2026-04-26 18:40 45.43507 9.28083 347 ft 1 kts 180°
2026-04-26 18:41 45.43473 9.28069 346 ft 3 kts 211°
2026-04-26 18:41 45.43469 9.28065 346 ft 1 kts 217°
2026-04-26 18:41 45.43451 9.28025 346 ft 5 kts 252°
2026-04-26 18:41 45.43448 9.28007 346 ft 0 kts 261°
2026-04-26 18:45 45.43448 9.28006 346 ft 2 kts 261°
2026-04-26 18:45 45.43446 9.27968 346 ft 0 kts 267°
2026-04-26 18:45 45.43446 9.27967 346 ft 0 kts 267°
2026-04-26 18:46 45.43443 9.27908 346 ft 8 kts 265°
2026-04-26 18:46 45.43456 9.27831 346 ft 7 kts 323°
2026-04-26 18:46 45.43486 9.27818 347 ft 0 kts 357°
2026-04-26 18:47 45.43643 9.27804 348 ft 63 kts 354°
2026-04-26 18:47 45.44374 9.27725 356 ft 140 kts 356°
2026-04-26 18:47 45.45435 9.27633 641 ft 164 kts 359°
2026-04-26 18:47 45.46620 9.27607 1220 ft 176 kts
2026-04-26 18:48 45.47781 9.28082 1787 ft 183 kts 42°
2026-04-26 18:48 45.48239 9.29692 2330 ft 185 kts 96°
2026-04-26 18:48 45.47677 9.31320 2955 ft 189 kts 130°
2026-04-26 18:48 45.46807 9.32699 3656 ft 191 kts 131°
2026-04-26 18:49 45.45936 9.34078 4308 ft 192 kts 131°
2026-04-26 18:49 45.45017 9.35532 4762 ft 206 kts 132°
2026-04-26 18:49 45.43900 9.36828 5418 ft 205 kts 144°
2026-04-26 18:49 45.42771 9.37969 6135 ft 201 kts 142°
2026-04-26 18:50 45.41675 9.39200 6755 ft 201 kts 140°
2026-04-26 18:50 45.40469 9.40151 7299 ft 204 kts 170°
2026-04-26 18:50 45.39043 9.40156 7823 ft 207 kts 180°
2026-04-26 18:50 45.37629 9.40437 8377 ft 207 kts 164°
2026-04-26 18:51 45.36279 9.41067 8949 ft 208 kts 158°
2026-04-26 18:51 45.34939 9.41895 9495 ft 210 kts 153°
2026-04-26 18:51 45.33655 9.42849 9999 ft 212 kts 149°
2026-04-26 18:51 45.32383 9.43919 10472 ft 214 kts 147°
2026-04-26 18:52 45.31141 9.45062 10974 ft 216 kts 145°
2026-04-26 18:52 45.29887 9.46288 11472 ft 218 kts 143°
2026-04-26 18:52 45.28657 9.47545 11962 ft 220 kts 142°
2026-04-26 18:52 45.27433 9.48838 12428 ft 222 kts 142°
2026-04-26 18:53 45.26210 9.50159 12843 ft 224 kts 141°
2026-04-26 18:53 45.24982 9.51507 13275 ft 225 kts 141°
2026-04-26 18:53 45.23747 9.52879 13702 ft 227 kts 141°
2026-04-26 18:53 45.22499 9.54278 14092 ft 229 kts 141°
2026-04-26 18:54 45.21142 9.55451 14454 ft 231 kts 165°
2026-04-26 18:54 45.19546 9.55727 14805 ft 233 kts 175°
2026-04-26 18:54 45.17903 9.56091 14995 ft 247 kts 167°
2026-04-26 18:54 45.16194 9.56776 15063 ft 265 kts 161°
2026-04-26 18:55 45.14419 9.57735 15107 ft 284 kts 157°
2026-04-26 18:55 45.12574 9.58900 15100 ft 301 kts 154°
2026-04-26 18:55 45.10630 9.60239 15084 ft 314 kts 156°
2026-04-26 18:55 45.08485 9.60731 15090 ft 323 kts 185°
2026-04-26 18:56 45.06329 9.59696 15104 ft 329 kts 208°
2026-04-26 18:56 45.04342 9.58079 15071 ft 337 kts 211°
2026-04-26 18:56 45.02300 9.56381 15051 ft 343 kts 211°
2026-04-26 18:56 45.00230 9.54664 15057 ft 348 kts 211°
2026-04-26 18:57 44.98112 9.52917 15078 ft 352 kts 211°
2026-04-26 18:57 44.96724 9.51776 15079 ft 354 kts 211°
2026-04-26 18:57 44.93857 9.49432 15095 ft 357 kts 211°
2026-04-26 18:57 44.91675 9.47749 15078 ft 361 kts 205°
2026-04-26 18:58 44.89300 9.46673 15083 ft 356 kts 195°
2026-04-26 18:58 44.86907 9.45800 15098 ft 351 kts 195°
2026-04-26 18:58 44.84560 9.44949 15094 ft 346 kts 195°
2026-04-26 18:58 44.82214 9.44098 15100 ft 343 kts 195°
2026-04-26 18:59 44.79919 9.43263 15098 ft 340 kts 195°
2026-04-26 18:59 44.77631 9.42429 15100 ft 339 kts 195°
2026-04-26 18:59 44.75372 9.41601 15122 ft 337 kts 195°
2026-04-26 18:59 44.73190 9.40588 15109 ft 325 kts 201°
2026-04-26 19:00 44.71120 9.39450 14930 ft 312 kts 201°
2026-04-26 19:00 44.69144 9.38359 14530 ft 301 kts 201°
2026-04-26 19:00 44.67237 9.37304 14128 ft 291 kts 201°
2026-04-26 19:00 44.65379 9.36278 13720 ft 282 kts 201°
2026-04-26 19:01 44.63583 9.35287 13319 ft 274 kts 201°
2026-04-26 19:01 44.61832 9.34323 12917 ft 267 kts 201°
2026-04-26 19:01 44.60140 9.33391 12520 ft 261 kts 201°
2026-04-26 19:01 44.58458 9.32464 12087 ft 264 kts 201°
2026-04-26 19:02 44.56728 9.31505 11619 ft 274 kts 201°
2026-04-26 19:02 44.54919 9.30507 11165 ft 282 kts 201°
2026-04-26 19:02 44.53131 9.29383 10698 ft 283 kts 211°
2026-04-26 19:02 44.52143 9.28220 10381 ft 278 kts 227°
2026-04-26 19:03 44.50558 9.25440 9773 ft 275 kts 232°
2026-04-26 19:03 44.49409 9.23329 9314 ft 275 kts 233°
2026-04-26 19:03 44.48243 9.21176 8843 ft 275 kts 233°
2026-04-26 19:03 44.47096 9.19062 8387 ft 275 kts 233°
2026-04-26 19:04 44.45935 9.16923 7921 ft 274 kts 232°
2026-04-26 19:04 44.44572 9.15140 7308 ft 273 kts 211°
2026-04-26 19:04 44.42795 9.14238 6666 ft 272 kts 192°
2026-04-26 19:04 44.40981 9.13694 6111 ft 269 kts 191°
2026-04-26 19:05 44.37595 9.11916 5203 ft 256 kts 222°
2026-04-26 19:05 44.36648 9.09898 4825 ft 248 kts 250°
2026-04-26 19:05 44.36489 9.07549 4337 ft 245 kts 277°
2026-04-26 19:06 44.36962 9.05278 3817 ft 244 kts 288°
2026-04-26 19:06 44.37463 9.03030 3279 ft 237 kts 276°
2026-04-26 19:06 44.37881 9.00903 2964 ft 219 kts 301°
2026-04-26 19:06 44.38417 8.98978 2495 ft 205 kts 285°
2026-04-26 19:07 44.38755 8.97188 2269 ft 183 kts 281°
2026-04-26 19:07 44.39013 8.95512 1992 ft 169 kts 284°
2026-04-26 19:07 44.39305 8.93966 1567 ft 168 kts 285°
2026-04-26 19:07 44.39616 8.92427 1196 ft 160 kts 285°
2026-04-26 19:08 44.39890 8.90952 817 ft 153 kts 285°
2026-04-26 19:08 44.40150 8.89563 547 ft 141 kts 285°
2026-04-26 19:08 44.40402 8.88277 379 ft 137 kts 285°
2026-04-26 19:08 44.40655 8.86987 213 ft 136 kts 284°
2026-04-26 19:09 44.40897 8.85724 54 ft 133 kts 285°
2026-04-26 19:09 44.41121 8.84594 23 ft 88 kts 284°
2026-04-26 19:09 44.41220 8.84054 22 ft 39 kts 286°
2026-04-26 19:09 44.41299 8.83800 22 ft 21 kts 320°
2026-04-26 19:10 44.41383 8.83743 22 ft 8 kts 14°
2026-04-26 19:10 44.41412 8.83783 22 ft 5 kts 65°
2026-04-26 19:10 44.41422 8.83831 22 ft 4 kts 95°
2026-04-26 19:10 44.41411 8.83873 22 ft 4 kts 109°
2026-04-26 19:11 44.41389 8.83983 22 ft 20 kts 106°
2026-04-26 19:11 44.41343 8.84220 22 ft 24 kts 104°
2026-04-26 19:11 44.41329 8.84427 23 ft 19 kts 53°
2026-04-26 19:11 44.41378 8.84481 23 ft 6 kts 323°
2026-04-26 19:12 44.41419 8.84437 23 ft 4 kts 324°
2026-04-26 19:12 44.41431 8.84425 23 ft 1 kts 324°
2026-04-26 19:12 44.41432 8.84425 23 ft 0 kts 324°